Home > Weather > Schwechat > Past weeks

Flag for Austria Weather for the Past 2 Weeks in Schwechat, Lower Austria, Austria

Now
37 °F

Light rain. Passing clouds.


Feels Like: 33 °F
Forecast: 37 / 57 °F
Wind: 6 mph from South

Location: Vienna Schwechat-Flughafen Airport

Current Time: Feb 6, 2016 at 1:47:15 AM

Latest Report: Feb 6, 2016 at 12:50 AM


Visibility: N/A

Pressure: 30.30 "Hg

Humidity: 87%

Dew point: 34 °F

Location of SchwechatLocation

Historic Weather in Schwechat — Graph

°F

Schwechat Temperature Yesterday

Maximum temperature yesterday: 43 °F (at 11:20 AM)
Minimum temperature yesterday: 34 °F (at 1:20 AM)
Average temperature yesterday: 39 °F

High & Low Weather Summary for the Past Weeks

 TemperatureHumidityPressure
High63 °F (Jan 28, 12:20 PM)100% (Jan 23, 4:20 PM)30.57 "Hg (Jan 23, 4:20 PM)
Low12 °F (Jan 22, 4:20 AM)37% (Jan 28, 12:50 PM)29.83 "Hg (Jan 31, 1:20 AM)
Average39 °F82%30.24 "Hg
* Reported Jan 21 11:50 PM — Feb 5 11:50 PM, Schwechat, Weather by CustomWeather, © 2016

Note: Actual official high and low records may vary slightly from our data, if they occured in-between our weather recording intervals... More about our weather records

Advertising

Schwechat Weather History for the Previous 24 Hours

 ConditionsComfort  
Time TempWeatherWind HumidityBarometerVisibility
11:50 PM
Fri, Feb 5
37 °FLight rain. Passing clouds.5 mph87%30.33 "HgN/A
11:20 PM37 °FLight rain. Passing clouds.3 mph81%30.33 "HgN/A
10:50 PM39 °FLight rain. Passing clouds.5 mph75%30.33 "HgN/A
10:20 PM36 °FPassing clouds.2 mph87%30.33 "HgN/A
9:50 PM36 °FPartly cloudy.7 mph87%30.33 "HgN/A
9:20 PM36 °FPassing clouds.9 mph87%30.33 "HgN/A
8:50 PM36 °FPassing clouds.8 mph81%30.36 "HgN/A
8:20 PM37 °FPassing clouds.7 mph75%30.36 "HgN/A
7:50 PM37 °FPassing clouds.8 mph75%30.36 "HgN/A
7:20 PM41 °FPassing clouds.7 mph66%30.36 "HgN/A
6:50 PM41 °FPassing clouds.6 mph66%30.36 "HgN/A
6:20 PM37 °FPassing clouds.5 mph75%30.36 "HgN/A
5:50 PM39 °FPassing clouds.3 mph70%30.36 "HgN/A
5:20 PM39 °FPassing clouds.2 mph70%30.33 "HgN/A
4:50 PM39 °FScattered clouds.3 mph70%30.33 "HgN/A
4:20 PM41 °FScattered clouds.5 mph66%30.33 "HgN/A
3:50 PM41 °FPartly sunny.6 mph61%30.33 "HgN/A
3:20 PM43 °FPartly sunny.9 mph49%30.33 "HgN/A
2:50 PM43 °FPartly sunny.12 mph49%30.33 "HgN/A
2:20 PM43 °FPartly sunny.10 mph53%30.33 "HgN/A
1:50 PM43 °FPartly sunny.12 mph53%30.33 "HgN/A
1:20 PM43 °FPartly sunny.12 mph57%30.33 "HgN/A
12:50 PM43 °FPartly sunny.13 mph57%30.33 "HgN/A
12:20 PM43 °FScattered clouds.13 mph61%30.33 "HgN/A
11:50 AM41 °FBroken clouds.10 mph70%30.36 "HgN/A
11:20 AM43 °FPartly sunny.13 mph71%30.36 "HgN/A
10:50 AM41 °FPartly sunny.15 mph76%30.36 "HgN/A
10:20 AM39 °FBroken clouds.16 mph81%30.36 "HgN/A
9:50 AM39 °FSnow flurries. Broken clouds.12 mph75%30.36 "HgN/A
9:20 AM39 °FBroken clouds.13 mph75%30.33 "HgN/A
8:50 AM39 °FSprinkles. Broken clouds.12 mph81%30.33 "HgN/A
8:20 AM39 °FPartly sunny.10 mph81%30.30 "HgN/A
7:50 AM39 °FPartly sunny.12 mph75%30.30 "HgN/A
7:20 AM39 °FBroken clouds.13 mph75%30.27 "HgN/A
6:50 AM39 °FPartly cloudy.17 mph75%30.24 "HgN/A
6:20 AM39 °FPartly cloudy.16 mph75%30.24 "HgN/A
5:50 AM37 °FLight rain. Partly cloudy.12 mph87%30.21 "HgN/A
5:20 AM37 °FLight rain. Partly cloudy.13 mph87%30.21 "HgN/A
4:50 AM39 °FLight rain. Partly cloudy.16 mph81%30.18 "HgN/A
4:20 AM37 °FPassing clouds.14 mph87%30.18 "HgN/A
3:50 AM39 °FPassing clouds.17 mph81%30.15 "HgN/A
3:20 AM37 °FLight rain. Passing clouds.13 mph87%30.15 "HgN/A
2:50 AM36 °FLight rain. Passing clouds.3 mph93%30.15 "HgN/A
2:20 AM36 °FLight rain. Passing clouds.6 mph93%30.15 "HgN/A
1:50 AM34 °FLight rain. Passing clouds.9 mph100%30.12 "HgN/A
1:20 AM34 °FLight rain. Passing clouds.9 mph100%30.12 "HgN/A
Weather by CustomWeather, © 2016

See weather overviewHow to use our weather pages